Location: Newark
(52.8300°N, 8.0000°E)
Time: 16:00:02
(UTC+00:00)

STARLINK-1100 - Pass Details

Date: 30 January 2020
Orbit: 348 x 351 km, 53.0° (Epoch: 19 February)

Event Time Altitude Azimuth Distance (km) Brightness Sun altitude
Rises 18:11:56 0° 282° (WNW) 2,170 8.1 -18.6°
Reaches altitude 10° 18:14:14 10° 265° (W) 1,324 6.8 -18.9°
Maximum altitude 18:16:32 21° 214° (SW) 873 5.1 -19.3°
Enters shadow 18:17:43 16° 181° (S) 1,014 5.0 -19.4°
